This is the latest recevied weather packets stored in our database for station/object KC5AV. If no packets are shown the sender has not sent any weather packets the latest 10 day(s).
| Time | Temp. | Humidity | Pressure | Rain* | Wind** | Luminosity | Snow |
|---|---|---|---|---|---|---|---|
| 1777485263 | 20° C | 94% | 1014.8 hPa | 0 mm | - | 35 W/m² | - |
| 1777484960 | 20° C | 94% | 1014.9 hPa | 0 mm | - | 32 W/m² | - |
| 1777484656 | 20° C | 94% | 1014.7 hPa | 0 mm | - | 36 W/m² | - |
| 1777484353 | 20° C | 94% | 1014.8 hPa | 0 mm | - | 39 W/m² | - |
| 1777484048 | 20° C | 94% | 1014.4 hPa | 0 mm | - | 53 W/m² | - |
| 1777483745 | 20° C | 94% | 1014 hPa | 0 mm | - | 65 W/m² | - |
| 1777483441 | 20.56° C | 94% | 1014 hPa | 0 mm | - | 60 W/m² | - |
| 1777483136 | 20.56° C | 94% | 1014.3 hPa | 0 mm | - | 60 W/m² | - |
| 1777482834 | 20.56° C | 94% | 1013.7 hPa | 0 mm | - | 56 W/m² | - |
| 1777482529 | 20.56° C | 93% | 1013.9 hPa | 0 mm | - | 61 W/m² | - |
| 1777482227 | 21.11° C | 93% | 1014 hPa | 0 mm | - | 60 W/m² | - |
| 1777481924 | 21.67° C | 92% | 1014.3 hPa | 0 mm | - | 59 W/m² | - |
| 1777481622 | 21.67° C | 92% | 1014.4 hPa | 0 mm | - | 66 W/m² | - |
| 1777481319 | 22.22° C | 93% | 1014.5 hPa | 0 mm | - | 81 W/m² | - |
| 1777481015 | 22.22° C | 93% | 1014.8 hPa | 0 mm | - | 122 W/m² | - |
| 1777480712 | 22.22° C | 93% | 1015 hPa | 0 mm | - | 73 W/m² | - |
| 1777480409 | 22.22° C | 94% | 1014.8 hPa | 0 mm | - | 98 W/m² | - |
| 1777480104 | 22.22° C | 93% | 1014.7 hPa | 0 mm | - | 142 W/m² | - |
| 1777479801 | 22.22° C | 93% | 1014.9 hPa | 0 mm | - | 112 W/m² | - |
| 1777478530 | 22.22° C | 91% | 1015 hPa | 0 mm | - | 58 W/m² | - |
| 1777478228 | 22.22° C | 91% | 1015 hPa | 0 mm | - | 58 W/m² | - |
| 1777477924 | 22.22° C | 90% | 1014.8 hPa | 0 mm | - | 87 W/m² | - |
| 1777477619 | 22.22° C | 91% | 1014.7 hPa | 0 mm | - | 149 W/m² | - |
| 1777477316 | 22.22° C | 90% | 1014.9 hPa | 0 mm | - | 97 W/m² | - |
| 1777477013 | 22.22° C | 90% | 1015 hPa | 0 mm | - | 73 W/m² | - |
* Rain latest hour (hover to see other rain measurements)
** Current wind speed in m/s (hover to see current wind gust speed)